Regional Weather Roundup
Issued by NWS

Home | Current Version | Previous Version | Text Only | Print | Product List | Glossary Off
Versions: 1 2 3 4 5 6 7 8 9 10 11 12 13 14 15 16 17 18 19 20 21 22 23 24 25 26 27 28 29 30 31 32 33 34 35 36 37 38 39 40 41 42 43 44 45 46 47 48 49 50

000
ASUS44 KMEG 021710
RWRTN
TENNESSEE HOURLY STATE WEATHER ROUNDUP
NATIONAL WEATHER SERVICE MEMPHIS TN
1200 PM CDT TUE JUN 02 2015

TNZ002-004-019-021-049-052-054-088>092-021800-
WEST TENNESSEE

CITY           SKY/WX    TMP DP  RH WIND       PRES   REMARKS
MEMPHIS INTL   CLOUDY    71  57  61 N9        30.08F
NWS MEMPHIS      N/A     69 N/A N/A MISG        N/A
JACKSON        CLOUDY    69  59  70 NE5       30.09S
DYERSBURG      CLOUDY    66  48  52 N3        30.11S
PARIS          CLOUDY    64  55  72 N6        30.10S
LEXINGTON      CLOUDY    66  57  72 N6        30.08S
$$

TNZ008-025-027-028-033-062-065-066-021800-
NORTH MIDDLE TENNESSEE

CITY           SKY/WX    TMP DP  RH WIND       PRES   REMARKS
NASHVILLE      CLOUDY    66  59  78 N8        30.10F
CLARKSVILLE    CLOUDY    64  57  78 N7        30.10F
SMYRNA         CLOUDY    67  60  78 N9        30.10F
COOKEVILLE     CLOUDY    64  61  88 VRB5      30.08F
CROSSVILLE     PTSUNNY   69  59  70 W7        30.09R
$$

TNZ061-075-076-078-094-096-097-021800-
SOUTH MIDDLE TENNESSEE

CITY           SKY/WX    TMP DP  RH WIND       PRES   REMARKS
FAYETTEVILLE   CLOUDY   N/A N/A N/A MISG      30.07F
TULLAHOMA      CLOUDY    68  61  77 N6        30.09F
WINCHESTER     MOSUNNY   72  63  73 N7        30.07F
MCMINNVILLE    CLOUDY    66  64  94 N7        30.08F
COLUMBIA       CLOUDY    66  61  82 VRB3      30.08S
SHELBYVILLE    CLOUDY    70  63  78 N6        30.09F
$$

TNZ017-018-042-046-047-021800-
NORTHEAST TENNESSEE

CITY           SKY/WX    TMP DP  RH WIND       PRES   REMARKS
TRI CITIES     PTSUNNY   74  61  63 VRB3      30.04F
ELIZABETHTON   MOSUNNY   73  63  68 VRB6      30.04F
$$

TNZ012-013-036-069-073-074-021800-
CENTRAL EAST TENNESSEE

CITY           SKY/WX    TMP DP  RH WIND       PRES   REMARKS
KNOXVILLE      PTSUNNY   75  62  64 NW6       30.03F
OAK RIDGE      MOSUNNY   78  61  55 CALM      30.04F
GATLINBURG     PTSUNNY   75  61  60 VRB3      30.02F
MORRISTOWN     SUNNY     72  64  78 E8        30.05F
$$

TNZ083-085-099-021800-
SOUTHEAST TENNESSEE

CITY           SKY/WX    TMP DP  RH WIND       PRES   REMARKS
CHATTANOOGA    PTSUNNY   78  62  57 W3        30.03F
$$

SKY/WX REPORTED AS FAIR MEANS FEW OR NO CLOUDS BELOW
12 THOUSAND FEET.



USA.gov is the U.S. government's official web portal to all federal, state and local government web resources and services.